Regional Weather Roundup
Issued by NWS

Home | Current Version | Previous Version | Graphics & Text | Print | Product List | Glossary On
Versions: 1 2 3 4 5 6 7 8 9 10 11 12 13 14 15 16 17 18 19 20 21 22 23 24 25 26 27 28 29 30 31 32 33 34 35 36 37 38 39 40 41 42 43 44 45 46 47 48 49 50
000
ASUS43 KLMK 312102
RWRKY
KENTUCKY REGIONAL WEATHER ROUNDUP
NATIONAL WEATHER SERVICE LOUISVILLE KY
500 PM EDT THU JUL 31 2014

NOTE "FAIR" INDICATES FEW OR NO CLOUDS BELOW 12,000 FEET
WITH NO SIGNIFICANT WEATHER AND/OR OBSTRUCTIONS TO VISIBILITY.

KYZ001>023-026-027-061>063-070>075-312200-
WESTERN AND SOUTH CENTRAL KENTUCKY

CITY           SKY/WX    TMP DP  RH WIND       PRES   REMARKS
PADUCAH        MOSUNNY   83  63  50 SW8       30.07F
HENDERSON      MOSUNNY  N/A N/A N/A MISG        N/A
OWENSBORO      MOSUNNY   83  58  42 W6        30.07F
HOPKINSVILLE   PTSUNNY   83  56  39 N6        30.07F
BOWLING GREEN  PTSUNNY   84  52  33 W5        30.07F
GLASGOW        MOSUNNY   83  53  34 CALM      30.08S
$$

KYZ024-025-028>034-038-045-046-053-312200-
NORTH CENTRAL KENTUCKY

CITY           SKY/WX    TMP DP  RH WIND       PRES   REMARKS
LOUISVILLE/SDF MOSUNNY   85  55  35 W9        30.07F
LOUISVILLE/LOU MOSUNNY   83  54  36 CALM      30.07F
FORT KNOX      SUNNY     82  56  40 VRB3      30.08S
$$

KYZ035>037-039>044-047>052-055>060-089>105-312200-
NORTHEAST KENTUCKY

CITY           SKY/WX    TMP DP  RH WIND       PRES   REMARKS
LEXINGTON      SUNNY     82  56  40 S5        30.09F
COVINGTON      MOSUNNY   82  58  43 W8        30.08F
FRANKFORT      MOSUNNY   81  55  40 MISG      30.08F
$$

KYZ054-064>069-076>088-106>120-312200-
SOUTHEAST KENTUCKY

CITY           SKY/WX    TMP DP  RH WIND       PRES   REMARKS
JACKSON        MOSUNNY   81  55  40 CALM      30.12F
LONDON         MOSUNNY   82  55  39 N5        30.11F
SOMERSET       NOT AVBL
MIDDLESBORO    MOSUNNY   82  60  46 CALM      30.10S
MONTICELLO     PTCLDY    82  62  50 E6        30.11F
$$



USA.gov is the U.S. government's official web portal to all federal, state and local government web resources and services.